When you browse on this site, cookies collect data to enhance your experience and personalize the content and advertising you see.
Visit our Privacy Policy to learn more. By continuing to use the site, you agree to this use of cookies and data.
  • In Germany
  • List of Countries
  • For 7 days
  • Water Temperature
  • Weather Map
  • Weather Widgets
  • user-avatar
    Login

    Hourly Weather Kolno

    Today, 5 June, Friday

    Time Temperature Precipitation Wind Pressure Humidity
    00:00 +11°C° 0 mm 4 mps 739 mmHg 78%
    01:00 +11°C° 0 mm 4 mps 739 mmHg 79%
    02:00 +11°C° 0 mm 4 mps 739 mmHg 79%
    03:00 +11°C° 0 mm 4 mps 738 mmHg 80%
    04:00 +11°C° 0 mm 4 mps 738 mmHg 81%
    05:00 +12°C° 0 mm 4 mps 738 mmHg 81%
    06:00 +13°C° 0 mm 4 mps 737 mmHg 81%
    07:00 +15°C° 0 mm 4 mps 737 mmHg 82%
    08:00 +17°C° 0.1 mm 5 mps 737 mmHg 78%
    09:00 +19°C° 0.1 mm 5 mps 737 mmHg 75%
    10:00 +21°C° 0.1 mm 5 mps 737 mmHg 72%
    11:00 +22°C° 0.7 mm 5 mps 737 mmHg 70%
    12:00 +22°C° 0.7 mm 6 mps 737 mmHg 68%
    13:00 +23°C° 0.7 mm 7 mps 737 mmHg 67%
    14:00 +22°C° 0.8 mm 6 mps 737 mmHg 72%
    15:00 +20°C° 0.8 mm 6 mps 737 mmHg 78%
    16:00 +19°C° 0.8 mm 5 mps 738 mmHg 83%
    17:00 +18°C° 0.1 mm 4 mps 738 mmHg 85%
    18:00 +17°C° 0.1 mm 4 mps 738 mmHg 87%
    19:00 +16°C° 0.1 mm 3 mps 739 mmHg 88%
    20:00 +16°C° 0.6 mm 2 mps 739 mmHg 90%
    21:00 +15°C° 0.6 mm 2 mps 740 mmHg 92%
    22:00 +15°C° 0.6 mm 2 mps 740 mmHg 94%
    23:00 +14°C° 0.1 mm 2 mps 740 mmHg 95%

    Tomorrow, 6 June, Saturday

    Time Temperature Precipitation Wind Pressure Humidity
    00:00 +13°C° 0.1 mm 3 mps 741 mmHg 95%
    01:00 +12°C° 0.1 mm 3 mps 741 mmHg 95%
    02:00 +12°C° 0 mm 4 mps 741 mmHg 94%
    03:00 +12°C° 0 mm 4 mps 742 mmHg 93%
    04:00 +12°C° 0 mm 5 mps 742 mmHg 92%
    05:00 +13°C° 0 mm 6 mps 743 mmHg 86%
    06:00 +14°C° 0 mm 6 mps 743 mmHg 80%
    07:00 +15°C° 0 mm 7 mps 744 mmHg 75%
    08:00 +16°C° 0 mm 7 mps 744 mmHg 69%
    09:00 +18°C° 0 mm 7 mps 745 mmHg 63%
    10:00 +20°C° 0 mm 7 mps 745 mmHg 57%
    11:00 +21°C° 0 mm 7 mps 745 mmHg 54%
    12:00 +22°C° 0 mm 7 mps 745 mmHg 52%
    13:00 +23°C° 0 mm 7 mps 746 mmHg 49%
    14:00 +22°C° 0 mm 5 mps 746 mmHg 54%
    15:00 +21°C° 0 mm 4 mps 746 mmHg 58%
    16:00 +21°C° 0 mm 3 mps 746 mmHg 63%
    17:00 +20°C° 0 mm 3 mps 746 mmHg 66%
    18:00 +20°C° 0 mm 2 mps 746 mmHg 69%
    19:00 +20°C° 0 mm 1 mps 746 mmHg 72%
    20:00 +19°C° 0.1 mm 2 mps 746 mmHg 75%
    21:00 +18°C° 0.1 mm 2 mps 746 mmHg 78%
    22:00 +17°C° 0.1 mm 2 mps 747 mmHg 81%
    23:00 +17°C° 0.1 mm 2 mps 746 mmHg 84%

    Day after tomorrow, 7 June, Sunday

    Time Temperature Precipitation Wind Pressure Humidity
    00:00 +16°C° 0.1 mm 2 mps 746 mmHg 88%
    01:00 +16°C° 0.1 mm 2 mps 746 mmHg 91%
    02:00 +15°C° 0.2 mm 2 mps 746 mmHg 93%
    03:00 +15°C° 0.2 mm 2 mps 746 mmHg 94%
    04:00 +15°C° 0.2 mm 2 mps 746 mmHg 96%
    05:00 +16°C° 0 mm 2 mps 746 mmHg 93%
    06:00 +18°C° 0 mm 3 mps 746 mmHg 91%
    07:00 +19°C° 0 mm 3 mps 745 mmHg 89%
    08:00 +20°C° 0 mm 3 mps 746 mmHg 84%
    09:00 +23°C° 0 mm 2 mps 746 mmHg 79%
    10:00 +24°C° 0 mm 2 mps 746 mmHg 74%
    11:00 +24°C° 0.1 mm 2 mps 746 mmHg 72%
    12:00 +25°C° 0.1 mm 2 mps 746 mmHg 69%
    13:00 +25°C° 0.1 mm 2 mps 746 mmHg 67%
    14:00 +24°C° 1.2 mm 2 mps 746 mmHg 72%
    15:00 +24°C° 1.2 mm 3 mps 747 mmHg 77%
    16:00 +22°C° 1.2 mm 3 mps 747 mmHg 81%
    17:00 +21°C° 0.3 mm 3 mps 747 mmHg 85%
    18:00 +20°C° 0.3 mm 2 mps 747 mmHg 88%
    19:00 +19°C° 0.3 mm 2 mps 747 mmHg 91%
    20:00 +19°C° 0.5 mm 1 mps 748 mmHg 92%
    21:00 +19°C° 0.5 mm 1 mps 748 mmHg 94%
    22:00 +18°C° 0.5 mm 1 mps 748 mmHg 95%
    23:00 +18°C° 0.2 mm 1 mps 748 mmHg 95%

    8 June, Monday

    Time Temperature Precipitation Wind Pressure Humidity
    00:00 +16°C° 0.2 mm 2 mps 748 mmHg 96%
    01:00 +16°C° 0.2 mm 2 mps 749 mmHg 96%
    02:00 +16°C° 0 mm 2 mps 748 mmHg 97%
    03:00 +16°C° 0 mm 2 mps 748 mmHg 97%
    04:00 +16°C° 0 mm 2 mps 748 mmHg 97%
    05:00 +17°C° 0 mm 2 mps 748 mmHg 95%
    06:00 +18°C° 0 mm 3 mps 748 mmHg 92%
    07:00 +19°C° 0 mm 3 mps 748 mmHg 90%
    08:00 +21°C° 0 mm 3 mps 748 mmHg 84%
    09:00 +22°C° 0 mm 3 mps 748 mmHg 78%
    10:00 +25°C° 0 mm 3 mps 748 mmHg 72%
    11:00 +25°C° 2 mm 3 mps 748 mmHg 71%
    12:00 +25°C° 2 mm 2 mps 748 mmHg 71%
    13:00 +25°C° 2 mm 2 mps 747 mmHg 71%
    14:00 +25°C° 0.5 mm 2 mps 747 mmHg 72%
    15:00 +25°C° 0.5 mm 3 mps 747 mmHg 73%
    16:00 +26°C° 0.5 mm 3 mps 747 mmHg 73%
    17:00 +25°C° 0.7 mm 3 mps 747 mmHg 77%
    18:00 +22°C° 0.7 mm 3 mps 747 mmHg 81%
    19:00 +21°C° 0.7 mm 3 mps 746 mmHg 84%
    20:00 +21°C° 0.4 mm 3 mps 747 mmHg 85%
    21:00 +20°C° 0.4 mm 3 mps 747 mmHg 86%
    22:00 +20°C° 0.4 mm 2 mps 747 mmHg 88%
    23:00 +19°C° 0 mm 2 mps 747 mmHg 89%

    9 June, Tuesday

    Time Temperature Precipitation Wind Pressure Humidity
    00:00 +19°C° 0 mm 2 mps 747 mmHg 90%
    01:00 +18°C° 0 mm 2 mps 746 mmHg 92%
    02:00 +18°C° 0 mm 2 mps 747 mmHg 93%
    03:00 +18°C° 0 mm 2 mps 747 mmHg 93%
    04:00 +18°C° 0 mm 2 mps 747 mmHg 94%
    05:00 +19°C° 0 mm 2 mps 747 mmHg 91%
    06:00 +20°C° 0 mm 2 mps 747 mmHg 89%
    07:00 +21°C° 0 mm 3 mps 747 mmHg 86%
    08:00 +24°C° 0 mm 2 mps 747 mmHg 79%
    09:00 +25°C° 0 mm 2 mps 747 mmHg 72%
    10:00 +27°C° 0 mm 2 mps 747 mmHg 65%
    11:00 +27°C° 0.1 mm 2 mps 747 mmHg 61%
    12:00 +28°C° 0.1 mm 2 mps 747 mmHg 57%
    13:00 +29°C° 0.1 mm 1 mps 747 mmHg 53%
    14:00 +29°C° 0.3 mm 1 mps 747 mmHg 53%
    15:00 +29°C° 0.3 mm 2 mps 747 mmHg 54%
    16:00 +29°C° 0.3 mm 2 mps 747 mmHg 54%
    17:00 +27°C° 0.5 mm 2 mps 747 mmHg 62%
    18:00 +26°C° 0.5 mm 2 mps 747 mmHg 70%
    19:00 +24°C° 0.5 mm 2 mps 747 mmHg 78%
    20:00 +23°C° 0 mm 1 mps 748 mmHg 80%
    21:00 +23°C° 0 mm 1 mps 748 mmHg 81%
    22:00 +22°C° 0 mm 1 mps 748 mmHg 83%
    23:00 +21°C° 0.3 mm 1 mps 748 mmHg 85%

    10 June, Wednesday

    Time Temperature Precipitation Wind Pressure Humidity
    00:00 +21°C° 0.3 mm 1 mps 748 mmHg 87%
    01:00 +20°C° 0.3 mm 1 mps 748 mmHg 90%
    02:00 +20°C° 0.1 mm 1 mps 749 mmHg 91%
    03:00 +19°C° 0.1 mm 1 mps 749 mmHg 92%
    04:00 +19°C° 0.1 mm 1 mps 749 mmHg 93%
    05:00 +20°C° 0 mm 1 mps 749 mmHg 89%
    06:00 +22°C° 0 mm 1 mps 749 mmHg 86%
    07:00 +23°C° 0 mm 1 mps 750 mmHg 82%
    08:00 +24°C° 0 mm 1 mps 750 mmHg 76%
    09:00 +26°C° 0 mm 1 mps 750 mmHg 69%
    10:00 +27°C° 0 mm 1 mps 750 mmHg 63%
    11:00 +28°C° 0.4 mm 1 mps 750 mmHg 61%
    12:00 +28°C° 0.4 mm 1 mps 750 mmHg 58%
    13:00 +29°C° 0.4 mm 1 mps 750 mmHg 55%
    14:00 +29°C° 0.6 mm 1 mps 750 mmHg 57%
    15:00 +29°C° 0.6 mm 1 mps 750 mmHg 58%
    16:00 +28°C° 0.6 mm 1 mps 750 mmHg 60%
    17:00 +27°C° 0.6 mm 1 mps 750 mmHg 65%
    18:00 +26°C° 0.6 mm 1 mps 750 mmHg 71%
    19:00 +25°C° 0.6 mm 1 mps 750 mmHg 76%
    20:00 +24°C° 0.3 mm 1 mps 750 mmHg 79%
    21:00 +23°C° 0.3 mm 1 mps 750 mmHg 81%
    22:00 +22°C° 0.3 mm 1 mps 750 mmHg 84%
    23:00 +22°C° 0.1 mm 1 mps 750 mmHg 85%
    Show more